contact:dominique.lefevre@mio.osupytheas.fr, maurice.libes@osupytheas.fr, didier.mallarino@osupytheas.fr
Project:EMSO http://www.emso-fr.org/EMSO-France
Depth: 2436.0 m
Title:EMSO Ligure Ouest : Data MII capteur MICROCAT
DateTime_Computer,Latitude,Longitude,Temperature,Conductivity,Pressure,DateTime_Instrument
DateTime_Computer,Latitude,Longitude,degC,S m-1,dbar,DateTime_Instrument
2023-06-24T00:00:59Z,42.805,6.029,13.3089,4.60167,2470.81,2023-6-24T02:03:14Z
2023-06-24T00:04:02Z,42.805,6.029,13.3061,4.60144,2470.8,2023-6-24T02:06:17Z
2023-06-24T00:07:05Z,42.805,6.029,13.3065,4.60119,2470.8,2023-6-24T02:09:20Z
2023-06-24T00:10:08Z,42.805,6.029,13.3056,4.60166,2470.763,2023-6-24T02:12:23Z
2023-06-24T00:13:12Z,42.805,6.029,13.3069,4.60192,2470.81,2023-6-24T02:15:26Z
2023-06-24T00:16:15Z,42.805,6.029,13.3079,4.60188,2470.824,2023-6-24T02:18:29Z
2023-06-24T00:19:18Z,42.805,6.029,13.3069,4.60199,2470.81,2023-6-24T02:21:33Z
2023-06-24T00:22:21Z,42.805,6.029,13.3100,4.60170,2470.787,2023-6-24T02:24:36Z
2023-06-24T00:25:24Z,42.805,6.029,13.3073,4.60178,2470.787,2023-6-24T02:27:39Z
2023-06-24T00:28:27Z,42.805,6.029,13.3077,4.60194,2470.8,2023-6-24T02:30:42Z
2023-06-24T00:31:30Z,42.805,6.029,13.3078,4.60213,2470.8,2023-6-24T02:33:45Z
2023-06-24T00:34:33Z,42.805,6.029,13.3093,4.60184,2470.8,2023-6-24T02:36:48Z
2023-06-24T00:37:36Z,42.805,6.029,13.3095,4.60198,2470.833,2023-6-24T02:39:51Z
2023-06-24T00:40:39Z,42.805,6.029,13.3096,4.60185,2470.787,2023-6-24T02:42:54Z
2023-06-24T00:43:42Z,42.805,6.029,13.3091,4.60132,2470.787,2023-6-24T02:45:57Z
2023-06-24T00:46:45Z,42.805,6.029,13.3107,4.60157,2470.777,2023-6-24T02:49:00Z
2023-06-24T00:49:49Z,42.805,6.029,13.3095,4.60200,2470.8,2023-6-24T02:52:03Z
2023-06-24T00:52:52Z,42.805,6.029,13.3059,4.60130,2470.787,2023-6-24T02:55:06Z
2023-06-24T00:55:55Z,42.805,6.029,13.3084,4.60162,2470.8,2023-6-24T02:58:10Z
2023-06-24T00:58:58Z,42.805,6.029,13.3088,4.60117,2470.777,2023-6-24T03:01:13Z
2023-06-24T01:02:01Z,42.805,6.029,13.3071,4.60162,2470.8,2023-6-24T03:04:16Z
2023-06-24T01:05:04Z,42.805,6.029,13.3109,4.60127,2470.777,2023-6-24T03:07:19Z
2023-06-24T01:08:07Z,42.805,6.029,13.3070,4.60127,2470.773,2023-6-24T03:10:22Z
2023-06-24T01:11:10Z,42.805,6.029,13.3104,4.60147,2470.787,2023-6-24T03:13:25Z
2023-06-24T01:14:13Z,42.805,6.029,13.3089,4.60151,2470.8,2023-6-24T03:16:28Z
2023-06-24T01:17:16Z,42.805,6.029,13.3107,4.60159,2470.787,2023-6-24T03:19:31Z
2023-06-24T01:20:19Z,42.805,6.029,13.3109,4.60162,2470.777,2023-6-24T03:22:34Z
2023-06-24T01:23:22Z,42.805,6.029,13.3107,4.60150,2470.787,2023-6-24T03:25:37Z
2023-06-24T01:26:25Z,42.805,6.029,13.3060,4.60138,2470.787,2023-6-24T03:28:40Z
2023-06-24T01:29:29Z,42.805,6.029,13.3068,4.60126,2470.787,2023-6-24T03:31:43Z
2023-06-24T01:32:32Z,42.805,6.029,13.3070,4.60137,2470.787,2023-6-24T03:34:47Z
2023-06-24T01:35:35Z,42.805,6.029,13.3072,4.60144,2470.8,2023-6-24T03:37:50Z
2023-06-24T01:38:38Z,42.805,6.029,13.3095,4.60115,2470.777,2023-6-24T03:40:53Z
2023-06-24T01:41:41Z,42.805,6.029,13.3084,4.60137,2470.787,2023-6-24T03:43:56Z
2023-06-24T01:44:44Z,42.805,6.029,13.3055,4.60143,2470.787,2023-6-24T03:46:59Z
2023-06-24T01:47:47Z,42.805,6.029,13.3060,4.60150,2470.8,2023-6-24T03:50:02Z
2023-06-24T01:50:50Z,42.805,6.029,13.3077,4.60138,2470.763,2023-6-24T03:53:05Z
2023-06-24T01:53:53Z,42.805,6.029,13.3078,4.60151,2470.777,2023-6-24T03:56:08Z
2023-06-24T01:56:56Z,42.805,6.029,13.3080,4.60132,2470.763,2023-6-24T03:59:11Z
2023-06-24T01:59:59Z,42.805,6.029,13.3060,4.60142,2470.763,2023-6-24T04:02:14Z
2023-06-24T02:03:02Z,42.805,6.029,13.3061,4.60107,2470.8,2023-6-24T04:05:17Z
2023-06-24T02:06:06Z,42.805,6.029,13.3059,4.60123,2470.73,2023-6-24T04:08:20Z
2023-06-24T02:09:09Z,42.805,6.029,13.3069,4.60126,2470.763,2023-6-24T04:11:23Z
2023-06-24T02:12:12Z,42.805,6.029,13.3055,4.60128,2470.74,2023-6-24T04:14:27Z
2023-06-24T02:15:15Z,42.805,6.029,13.3051,4.60125,2470.754,2023-6-24T04:17:30Z
2023-06-24T02:18:18Z,42.805,6.029,13.3045,4.60112,2470.74,2023-6-24T04:20:33Z
2023-06-24T02:21:21Z,42.805,6.029,13.3046,4.60114,2470.763,2023-6-24T04:23:36Z
2023-06-24T02:24:24Z,42.805,6.029,13.3064,4.60140,2470.717,2023-6-24T04:26:39Z
2023-06-24T02:27:27Z,42.805,6.029,13.3068,4.60112,2470.777,2023-6-24T04:29:42Z
2023-06-24T02:30:30Z,42.805,6.029,13.3067,4.60114,2470.74,2023-6-24T04:32:45Z
2023-06-24T02:33:33Z,42.805,6.029,13.3070,4.60132,2470.73,2023-6-24T04:35:48Z
2023-06-24T02:36:36Z,42.805,6.029,13.3082,4.60114,2470.74,2023-6-24T04:38:51Z
2023-06-24T02:39:39Z,42.805,6.029,13.3078,4.60122,2470.754,2023-6-24T04:41:54Z
2023-06-24T02:42:43Z,42.805,6.029,13.3062,4.60135,2470.73,2023-6-24T04:44:57Z
2023-06-24T02:45:46Z,42.805,6.029,13.3044,4.60129,2470.754,2023-6-24T04:48:00Z
2023-06-24T02:48:49Z,42.805,6.029,13.3096,4.60127,2470.777,2023-6-24T04:51:04Z
2023-06-24T02:51:52Z,42.805,6.029,13.3113,4.60125,2470.73,2023-6-24T04:54:07Z
2023-06-24T02:54:55Z,42.805,6.029,13.3058,4.60114,2470.73,2023-6-24T04:57:10Z
2023-06-24T02:57:58Z,42.805,6.029,13.3071,4.60112,2470.754,2023-6-24T05:00:13Z
2023-06-24T03:01:01Z,42.805,6.029,13.3075,4.60098,2470.717,2023-6-24T05:03:16Z
2023-06-24T03:04:04Z,42.805,6.029,13.3079,4.60101,2470.73,2023-6-24T05:06:19Z
2023-06-24T03:07:07Z,42.805,6.029,13.3078,4.60108,2470.717,2023-6-24T05:09:22Z
2023-06-24T03:10:10Z,42.805,6.029,13.3088,4.60135,2470.73,2023-6-24T05:12:25Z
2023-06-24T03:13:13Z,42.805,6.029,13.3070,4.60163,2470.74,2023-6-24T05:15:28Z
2023-06-24T03:16:16Z,42.805,6.029,13.3048,4.60154,2470.693,2023-6-24T05:18:31Z
2023-06-24T03:19:19Z,42.805,6.029,13.3055,4.60169,2470.74,2023-6-24T05:21:34Z
2023-06-24T03:22:23Z,42.805,6.029,13.3074,4.60151,2470.73,2023-6-24T05:24:37Z
2023-06-24T03:25:26Z,42.805,6.029,13.3068,4.60141,2470.754,2023-6-24T05:27:40Z
2023-06-24T03:28:29Z,42.805,6.029,13.3063,4.60127,2470.707,2023-6-24T05:30:44Z
2023-06-24T03:31:32Z,42.805,6.029,13.3055,4.60113,2470.74,2023-6-24T05:33:47Z
2023-06-24T03:34:35Z,42.805,6.029,13.3056,4.60110,2470.73,2023-6-24T05:36:50Z
2023-06-24T03:37:38Z,42.805,6.029,13.3050,4.60109,2470.693,2023-6-24T05:39:53Z
2023-06-24T03:40:41Z,42.805,6.029,13.3051,4.60119,2470.73,2023-6-24T05:42:56Z
2023-06-24T03:43:44Z,42.805,6.029,13.3052,4.60107,2470.73,2023-6-24T05:45:59Z
2023-06-24T03:46:47Z,42.805,6.029,13.3059,4.60150,2470.754,2023-6-24T05:49:02Z
2023-06-24T03:49:50Z,42.805,6.029,13.3073,4.60140,2470.707,2023-6-24T05:52:05Z
2023-06-24T03:52:53Z,42.805,6.029,13.3080,4.60120,2470.74,2023-6-24T05:55:08Z
2023-06-24T03:55:56Z,42.805,6.029,13.3078,4.60105,2470.693,2023-6-24T05:58:11Z
2023-06-24T03:59:00Z,42.805,6.029,13.3070,4.60110,2470.693,2023-6-24T06:01:14Z
2023-06-24T04:02:03Z,42.805,6.029,13.3067,4.60106,2470.717,2023-6-24T06:04:18Z
2023-06-24T04:05:06Z,42.805,6.029,13.3058,4.60102,2470.73,2023-6-24T06:07:21Z
2023-06-24T04:08:09Z,42.805,6.029,13.3055,4.60097,2470.67,2023-6-24T06:10:24Z
2023-06-24T04:11:12Z,42.805,6.029,13.3056,4.60100,2470.73,2023-6-24T06:13:27Z
2023-06-24T04:14:15Z,42.805,6.029,13.3051,4.60097,2470.73,2023-6-24T06:16:30Z
2023-06-24T04:17:18Z,42.805,6.029,13.3050,4.60099,2470.73,2023-6-24T06:19:33Z
2023-06-24T04:20:21Z,42.805,6.029,13.3046,4.60097,2470.707,2023-6-24T06:22:36Z
2023-06-24T04:23:24Z,42.805,6.029,13.3049,4.60092,2470.693,2023-6-24T06:25:39Z
2023-06-24T04:26:27Z,42.805,6.029,13.3041,4.60093,2470.693,2023-6-24T06:28:42Z
2023-06-24T04:29:30Z,42.805,6.029,13.3043,4.60092,2470.67,2023-6-24T06:31:45Z
2023-06-24T04:32:33Z,42.805,6.029,13.3037,4.60094,2470.707,2023-6-24T06:34:48Z
2023-06-24T04:35:37Z,42.805,6.029,13.3034,4.60088,2470.693,2023-6-24T06:37:51Z
2023-06-24T04:38:40Z,42.805,6.029,13.3039,4.60092,2470.693,2023-6-24T06:40:54Z
2023-06-24T04:41:43Z,42.805,6.029,13.3031,4.60100,2470.707,2023-6-24T06:43:58Z
2023-06-24T04:44:46Z,42.805,6.029,13.3031,4.60117,2470.707,2023-6-24T06:47:01Z
2023-06-24T04:47:49Z,42.805,6.029,13.3024,4.60196,2470.684,2023-6-24T06:50:04Z
2023-06-24T04:50:52Z,42.805,6.029,13.3022,4.60089,2470.73,2023-6-24T06:53:07Z
2023-06-24T04:53:55Z,42.805,6.029,13.3022,4.60085,2470.693,2023-6-24T06:56:10Z
2023-06-24T04:56:58Z,42.805,6.029,13.3026,4.60086,2470.693,2023-6-24T06:59:13Z
2023-06-24T05:00:01Z,42.805,6.029,13.3025,4.60086,2470.67,2023-6-24T07:02:16Z
2023-06-24T05:03:04Z,42.805,6.029,13.3021,4.60085,2470.693,2023-6-24T07:05:19Z
2023-06-24T05:06:07Z,42.805,6.029,13.3025,4.60084,2470.717,2023-6-24T07:08:22Z
2023-06-24T05:09:10Z,42.805,6.029,13.3025,4.60081,2470.67,2023-6-24T07:11:25Z
2023-06-24T05:12:13Z,42.805,6.029,13.3022,4.60086,2470.684,2023-6-24T07:14:28Z
2023-06-24T05:15:17Z,42.805,6.029,13.3021,4.60087,2470.679,2023-6-24T07:17:31Z
2023-06-24T05:18:20Z,42.805,6.029,13.3021,4.60084,2470.693,2023-6-24T07:20:35Z
2023-06-24T05:21:23Z,42.805,6.029,13.3024,4.60085,2470.693,2023-6-24T07:23:38Z
2023-06-24T05:24:26Z,42.805,6.029,13.3022,4.60087,2470.717,2023-6-24T07:26:41Z
2023-06-24T05:27:29Z,42.805,6.029,13.3024,4.60090,2470.679,2023-6-24T07:29:44Z
2023-06-24T05:30:32Z,42.805,6.029,13.3023,4.60085,2470.67,2023-6-24T07:32:47Z
2023-06-24T05:33:35Z,42.805,6.029,13.3021,4.60088,2470.67,2023-6-24T07:35:50Z
2023-06-24T05:36:38Z,42.805,6.029,13.3024,4.60091,2470.717,2023-6-24T07:38:53Z
2023-06-24T05:39:41Z,42.805,6.029,13.3023,4.60088,2470.707,2023-6-24T07:41:56Z
2023-06-24T05:42:44Z,42.805,6.029,13.3021,4.60084,2470.693,2023-6-24T07:44:59Z
2023-06-24T05:45:47Z,42.805,6.029,13.3022,4.60084,2470.693,2023-6-24T07:48:02Z
2023-06-24T05:48:50Z,42.805,6.029,13.3019,4.60090,2470.693,2023-6-24T07:51:05Z
2023-06-24T05:51:54Z,42.805,6.029,13.3021,4.60089,2470.693,2023-6-24T07:54:08Z
2023-06-24T05:54:57Z,42.805,6.029,13.3023,4.60090,2470.67,2023-6-24T07:57:11Z
2023-06-24T05:58:00Z,42.805,6.029,13.3021,4.60087,2470.717,2023-6-24T08:00:15Z
2023-06-24T06:01:03Z,42.805,6.029,13.3020,4.60090,2470.656,2023-6-24T08:03:18Z
2023-06-24T06:04:06Z,42.805,6.029,13.3021,4.60091,2470.646,2023-6-24T08:06:21Z
2023-06-24T06:07:09Z,42.805,6.029,13.3023,4.60092,2470.67,2023-6-24T08:09:24Z
2023-06-24T06:10:12Z,42.805,6.029,13.3024,4.60094,2470.684,2023-6-24T08:12:27Z
2023-06-24T06:13:15Z,42.805,6.029,13.3021,4.60092,2470.67,2023-6-24T08:15:30Z
2023-06-24T06:16:18Z,42.805,6.029,13.3019,4.60089,2470.707,2023-6-24T08:18:33Z
2023-06-24T06:19:21Z,42.805,6.029,13.3040,4.60093,2470.646,2023-6-24T08:21:36Z
2023-06-24T06:22:24Z,42.805,6.029,13.3027,4.60140,2470.67,2023-6-24T08:24:39Z
2023-06-24T06:25:27Z,42.805,6.029,13.3050,4.60115,2470.684,2023-6-24T08:27:42Z
2023-06-24T06:28:30Z,42.805,6.029,13.3076,4.60097,2470.67,2023-6-24T08:30:45Z
2023-06-24T06:31:34Z,42.805,6.029,13.3063,4.60093,2470.684,2023-6-24T08:33:48Z
2023-06-24T06:34:37Z,42.805,6.029,13.3063,4.60112,2470.707,2023-6-24T08:36:52Z
2023-06-24T06:37:40Z,42.805,6.029,13.3024,4.60086,2470.67,2023-6-24T08:39:55Z
2023-06-24T06:40:43Z,42.805,6.029,13.3032,4.60097,2470.693,2023-6-24T08:42:58Z
2023-06-24T06:43:46Z,42.805,6.029,13.3020,4.60107,2470.624,2023-6-24T08:46:01Z
2023-06-24T06:46:49Z,42.805,6.029,13.3020,4.60085,2470.684,2023-6-24T08:49:04Z
2023-06-24T06:49:52Z,42.805,6.029,13.3022,4.60082,2470.67,2023-6-24T08:52:07Z
2023-06-24T06:52:55Z,42.805,6.029,13.3028,4.60089,2470.646,2023-6-24T08:55:10Z
2023-06-24T06:55:58Z,42.805,6.029,13.3024,4.60089,2470.693,2023-6-24T08:58:13Z
2023-06-24T06:59:01Z,42.805,6.029,13.3026,4.60089,2470.67,2023-6-24T09:01:16Z
2023-06-24T07:02:04Z,42.805,6.029,13.3026,4.60088,2470.67,2023-6-24T09:04:19Z
2023-06-24T07:05:07Z,42.805,6.029,13.3046,4.60125,2470.73,2023-6-24T09:07:22Z
2023-06-24T07:08:10Z,42.805,6.029,13.3046,4.60109,2470.693,2023-6-24T09:10:25Z
2023-06-24T07:11:14Z,42.805,6.029,13.3033,4.60084,2470.693,2023-6-24T09:13:28Z
2023-06-24T07:14:17Z,42.805,6.029,13.3056,4.60087,2470.646,2023-6-24T09:16:32Z
2023-06-24T07:17:20Z,42.805,6.029,13.3033,4.60100,2470.707,2023-6-24T09:19:35Z
2023-06-24T07:20:23Z,42.805,6.029,13.3024,4.60086,2470.684,2023-6-24T09:22:38Z
2023-06-24T07:23:26Z,42.805,6.029,13.3024,4.60089,2470.693,2023-6-24T09:25:41Z
2023-06-24T07:26:29Z,42.805,6.029,13.3021,4.60093,2470.693,2023-6-24T09:28:44Z
2023-06-24T07:29:32Z,42.805,6.029,13.3022,4.60087,2470.717,2023-6-24T09:31:47Z
2023-06-24T07:32:35Z,42.805,6.029,13.3020,4.60082,2470.693,2023-6-24T09:34:50Z
2023-06-24T07:35:38Z,42.805,6.029,13.3031,4.60088,2470.67,2023-6-24T09:37:53Z
2023-06-24T07:38:41Z,42.805,6.029,13.3027,4.60097,2470.693,2023-6-24T09:40:56Z
2023-06-24T07:41:44Z,42.805,6.029,13.3039,4.60092,2470.717,2023-6-24T09:43:59Z
2023-06-24T07:44:47Z,42.805,6.029,13.3027,4.60081,2470.67,2023-6-24T09:47:02Z
2023-06-24T07:47:51Z,42.805,6.029,13.3024,4.60087,2470.693,2023-6-24T09:50:05Z
2023-06-24T07:50:54Z,42.805,6.029,13.3035,4.60090,2470.693,2023-6-24T09:53:09Z
2023-06-24T07:53:57Z,42.805,6.029,13.3021,4.60084,2470.707,2023-6-24T09:56:12Z
2023-06-24T07:57:00Z,42.805,6.029,13.3021,4.60089,2470.707,2023-6-24T09:59:15Z
2023-06-24T08:00:03Z,42.805,6.029,13.3021,4.60087,2470.67,2023-6-24T10:02:18Z
2023-06-24T08:03:06Z,42.805,6.029,13.3039,4.60084,2470.707,2023-6-24T10:05:21Z
2023-06-24T08:06:09Z,42.805,6.029,13.3033,4.60087,2470.693,2023-6-24T10:08:24Z
2023-06-24T08:09:12Z,42.805,6.029,13.3034,4.60084,2470.707,2023-6-24T10:11:27Z
2023-06-24T08:12:15Z,42.805,6.029,13.3045,4.60113,2470.73,2023-6-24T10:14:30Z
2023-06-24T08:15:18Z,42.805,6.029,13.3035,4.60097,2470.693,2023-6-24T10:17:33Z
2023-06-24T08:18:21Z,42.805,6.029,13.3069,4.60092,2470.717,2023-6-24T10:20:36Z
2023-06-24T08:21:24Z,42.805,6.029,13.3068,4.60084,2470.717,2023-6-24T10:23:39Z
2023-06-24T08:24:28Z,42.805,6.029,13.3070,4.60102,2470.717,2023-6-24T10:26:42Z
2023-06-24T08:27:31Z,42.805,6.029,13.3031,4.60091,2470.73,2023-6-24T10:29:46Z
2023-06-24T08:30:35Z,42.805,6.029,13.3020,4.60090,2470.73,2023-6-24T10:32:50Z
2023-06-24T08:33:38Z,42.805,6.029,13.3021,4.60084,2470.73,2023-6-24T10:35:53Z
2023-06-24T08:36:42Z,42.805,6.029,13.3020,4.60086,2470.707,2023-6-24T10:38:56Z
2023-06-24T08:39:45Z,42.805,6.029,13.3020,4.60084,2470.693,2023-6-24T10:41:59Z
2023-06-24T08:42:48Z,42.805,6.029,13.3028,4.60093,2470.717,2023-6-24T10:45:03Z
2023-06-24T08:45:51Z,42.805,6.029,13.3045,4.60101,2470.717,2023-6-24T10:48:06Z
2023-06-24T08:48:54Z,42.805,6.029,13.3042,4.60082,2470.73,2023-6-24T10:51:09Z
2023-06-24T08:51:57Z,42.805,6.029,13.3056,4.60095,2470.693,2023-6-24T10:54:12Z
2023-06-24T08:55:00Z,42.805,6.029,13.3069,4.60111,2470.693,2023-6-24T10:57:15Z
2023-06-24T08:58:03Z,42.805,6.029,13.3050,4.60110,2470.717,2023-6-24T11:00:18Z
2023-06-24T09:01:06Z,42.805,6.029,13.3055,4.60119,2470.717,2023-6-24T11:03:21Z
2023-06-24T09:04:09Z,42.805,6.029,13.3037,4.60119,2470.707,2023-6-24T11:06:24Z
2023-06-24T09:07:12Z,42.805,6.029,13.3064,4.60114,2470.73,2023-6-24T11:09:27Z
2023-06-24T09:10:15Z,42.805,6.029,13.3069,4.60095,2470.717,2023-6-24T11:12:30Z
2023-06-24T09:13:18Z,42.805,6.029,13.3040,4.60114,2470.717,2023-6-24T11:15:33Z
2023-06-24T09:16:22Z,42.805,6.029,13.3047,4.60125,2470.717,2023-6-24T11:18:36Z
2023-06-24T09:19:25Z,42.805,6.029,13.3061,4.60114,2470.717,2023-6-24T11:21:40Z
2023-06-24T09:22:28Z,42.805,6.029,13.3048,4.60105,2470.73,2023-6-24T11:24:43Z
2023-06-24T09:25:31Z,42.805,6.029,13.3069,4.60100,2470.703,2023-6-24T11:27:46Z
2023-06-24T09:28:34Z,42.805,6.029,13.3061,4.60117,2470.754,2023-6-24T11:30:49Z
2023-06-24T09:31:37Z,42.805,6.029,13.3065,4.60125,2470.73,2023-6-24T11:33:52Z
2023-06-24T09:34:40Z,42.805,6.029,13.3039,4.60125,2470.74,2023-6-24T11:36:55Z
2023-06-24T09:37:43Z,42.805,6.029,13.3055,4.60107,2470.693,2023-6-24T11:39:58Z
2023-06-24T09:40:46Z,42.805,6.029,13.3059,4.60135,2470.74,2023-6-24T11:43:01Z
2023-06-24T09:43:49Z,42.805,6.029,13.3057,4.60150,2470.73,2023-6-24T11:46:04Z
2023-06-24T09:46:52Z,42.805,6.029,13.3048,4.60140,2470.73,2023-6-24T11:49:07Z
2023-06-24T09:49:56Z,42.805,6.029,13.3068,4.60162,2470.693,2023-6-24T11:52:10Z
2023-06-24T09:52:59Z,42.805,6.029,13.3056,4.60165,2470.717,2023-6-24T11:55:14Z
2023-06-24T09:56:02Z,42.805,6.029,13.3041,4.60180,2470.74,2023-6-24T11:58:17Z
2023-06-24T09:59:05Z,42.805,6.029,13.3051,4.60179,2470.73,2023-6-24T12:01:20Z
2023-06-24T10:02:08Z,42.805,6.029,13.3043,4.60174,2470.707,2023-6-24T12:04:23Z
2023-06-24T10:05:11Z,42.805,6.029,13.3058,4.60173,2470.73,2023-6-24T12:07:26Z
2023-06-24T10:08:14Z,42.805,6.029,13.3048,4.60164,2470.74,2023-6-24T12:10:29Z
2023-06-24T10:11:17Z,42.805,6.029,13.3048,4.60185,2470.74,2023-6-24T12:13:32Z
2023-06-24T10:14:20Z,42.805,6.029,13.3058,4.60147,2470.707,2023-6-24T12:16:35Z
2023-06-24T10:17:23Z,42.805,6.029,13.3056,4.60113,2470.73,2023-6-24T12:19:38Z
2023-06-24T10:20:26Z,42.805,6.029,13.3054,4.60103,2470.73,2023-6-24T12:22:41Z
2023-06-24T10:23:29Z,42.805,6.029,13.3043,4.60165,2470.717,2023-6-24T12:25:44Z
2023-06-24T10:26:33Z,42.805,6.029,13.3059,4.60116,2470.717,2023-6-24T12:28:47Z
2023-06-24T10:29:36Z,42.805,6.029,13.3062,4.60135,2470.74,2023-6-24T12:31:51Z
2023-06-24T10:32:38Z,42.805,6.029,13.3053,4.60150,2470.717,2023-6-24T12:34:53Z
2023-06-24T10:35:41Z,42.805,6.029,13.3042,4.60163,2470.73,2023-6-24T12:37:56Z
2023-06-24T10:38:44Z,42.805,6.029,13.3049,4.60141,2470.717,2023-6-24T12:40:59Z
2023-06-24T10:41:47Z,42.805,6.029,13.3045,4.60160,2470.73,2023-6-24T12:44:02Z
2023-06-24T10:44:51Z,42.805,6.029,13.3045,4.60171,2470.754,2023-6-24T12:47:05Z
2023-06-24T10:47:54Z,42.805,6.029,13.3043,4.60176,2470.717,2023-6-24T12:50:09Z
2023-06-24T10:50:57Z,42.805,6.029,13.3044,4.60153,2470.73,2023-6-24T12:53:12Z
2023-06-24T10:54:00Z,42.805,6.029,13.3058,4.60160,2470.717,2023-6-24T12:56:15Z
2023-06-24T10:57:03Z,42.805,6.029,13.3044,4.60165,2470.73,2023-6-24T12:59:18Z
2023-06-24T11:00:06Z,42.805,6.029,13.3043,4.60150,2470.717,2023-6-24T13:02:21Z
2023-06-24T11:03:09Z,42.805,6.029,13.3071,4.60178,2470.73,2023-6-24T13:05:24Z
2023-06-24T11:06:12Z,42.805,6.029,13.3059,4.60180,2470.717,2023-6-24T13:08:27Z
2023-06-24T11:09:15Z,42.805,6.029,13.3058,4.60154,2470.717,2023-6-24T13:11:30Z
2023-06-24T11:12:18Z,42.805,6.029,13.3045,4.60170,2470.693,2023-6-24T13:14:33Z
2023-06-24T11:15:21Z,42.805,6.029,13.3041,4.60174,2470.717,2023-6-24T13:17:36Z
2023-06-24T11:18:25Z,42.805,6.029,13.3054,4.60139,2470.717,2023-6-24T13:20:39Z
2023-06-24T11:21:28Z,42.805,6.029,13.3057,4.60165,2470.693,2023-6-24T13:23:43Z
2023-06-24T11:24:31Z,42.805,6.029,13.3046,4.60157,2470.707,2023-6-24T13:26:46Z
2023-06-24T11:27:34Z,42.805,6.029,13.3031,4.60169,2470.693,2023-6-24T13:29:49Z
2023-06-24T11:30:37Z,42.805,6.029,13.3042,4.60160,2470.717,2023-6-24T13:32:52Z
2023-06-24T11:33:40Z,42.805,6.029,13.3041,4.60178,2470.693,2023-6-24T13:35:55Z
2023-06-24T11:36:43Z,42.805,6.029,13.3057,4.60121,2470.73,2023-6-24T13:38:58Z
2023-06-24T11:39:46Z,42.805,6.029,13.3047,4.60143,2470.693,2023-6-24T13:42:01Z
2023-06-24T11:42:49Z,42.805,6.029,13.3055,4.60147,2470.717,2023-6-24T13:45:04Z
2023-06-24T11:45:52Z,42.805,6.029,13.3064,4.60160,2470.693,2023-6-24T13:48:07Z
2023-06-24T11:48:55Z,42.805,6.029,13.3053,4.60135,2470.693,2023-6-24T13:51:10Z
2023-06-24T11:51:59Z,42.805,6.029,13.3054,4.60140,2470.717,2023-6-24T13:54:13Z
2023-06-24T11:55:02Z,42.805,6.029,13.3052,4.60146,2470.693,2023-6-24T13:57:16Z
2023-06-24T11:58:05Z,42.805,6.029,13.3050,4.60157,2470.717,2023-6-24T14:00:20Z
2023-06-24T12:01:08Z,42.805,6.029,13.3056,4.60150,2470.73,2023-6-24T14:03:23Z
2023-06-24T12:04:11Z,42.805,6.029,13.3041,4.60150,2470.717,2023-6-24T14:06:26Z
2023-06-24T12:07:14Z,42.805,6.029,13.3053,4.60152,2470.707,2023-6-24T14:09:29Z
2023-06-24T12:10:17Z,42.805,6.029,13.3056,4.60143,2470.717,2023-6-24T14:12:32Z
2023-06-24T12:13:20Z,42.805,6.029,13.3047,4.60156,2470.67,2023-6-24T14:15:35Z
2023-06-24T12:16:23Z,42.805,6.029,13.3064,4.60145,2470.67,2023-6-24T14:18:38Z
2023-06-24T12:19:26Z,42.805,6.029,13.3046,4.60140,2470.693,2023-6-24T14:21:41Z
2023-06-24T12:22:29Z,42.805,6.029,13.3052,4.60140,2470.73,2023-6-24T14:24:44Z
2023-06-24T12:25:32Z,42.805,6.029,13.3032,4.60135,2470.707,2023-6-24T14:27:47Z
2023-06-24T12:28:36Z,42.805,6.029,13.3036,4.60135,2470.684,2023-6-24T14:30:50Z
2023-06-24T12:31:39Z,42.805,6.029,13.3048,4.60138,2470.707,2023-6-24T14:33:54Z
2023-06-24T12:34:42Z,42.805,6.029,13.3045,4.60138,2470.661,2023-6-24T14:36:57Z
2023-06-24T12:37:45Z,42.805,6.029,13.3039,4.60161,2470.717,2023-6-24T14:40:00Z
2023-06-24T12:40:48Z,42.805,6.029,13.3054,4.60151,2470.693,2023-6-24T14:43:03Z
2023-06-24T12:43:51Z,42.805,6.029,13.3039,4.60158,2470.67,2023-6-24T14:46:06Z
2023-06-24T12:46:54Z,42.805,6.029,13.3046,4.60139,2470.67,2023-6-24T14:49:09Z
2023-06-24T12:49:57Z,42.805,6.029,13.3029,4.60143,2470.67,2023-6-24T14:52:12Z
2023-06-24T12:53:00Z,42.805,6.029,13.3049,4.60143,2470.684,2023-6-24T14:55:15Z
2023-06-24T12:56:03Z,42.805,6.029,13.3041,4.60137,2470.707,2023-6-24T14:58:18Z
2023-06-24T12:59:06Z,42.805,6.029,13.3039,4.60165,2470.684,2023-6-24T15:01:21Z
2023-06-24T13:02:10Z,42.805,6.029,13.3038,4.60152,2470.707,2023-6-24T15:04:24Z
2023-06-24T13:05:13Z,42.805,6.029,13.3042,4.60135,2470.684,2023-6-24T15:07:28Z
2023-06-24T13:08:16Z,42.805,6.029,13.3037,4.60131,2470.693,2023-6-24T15:10:31Z
2023-06-24T13:11:19Z,42.805,6.029,13.3039,4.60128,2470.67,2023-6-24T15:13:34Z
2023-06-24T13:14:22Z,42.805,6.029,13.3035,4.60135,2470.67,2023-6-24T15:16:37Z
2023-06-24T13:17:25Z,42.805,6.029,13.3056,4.60140,2470.73,2023-6-24T15:19:40Z
2023-06-24T13:20:28Z,42.805,6.029,13.3051,4.60142,2470.67,2023-6-24T15:22:43Z
2023-06-24T13:23:31Z,42.805,6.029,13.3038,4.60122,2470.67,2023-6-24T15:25:46Z
2023-06-24T13:26:34Z,42.805,6.029,13.3034,4.60146,2470.67,2023-6-24T15:28:49Z
2023-06-24T13:29:37Z,42.805,6.029,13.3054,4.60144,2470.67,2023-6-24T15:31:52Z
2023-06-24T13:32:40Z,42.805,6.029,13.3046,4.60145,2470.661,2023-6-24T15:34:55Z
2023-06-24T13:35:44Z,42.805,6.029,13.3059,4.60121,2470.67,2023-6-24T15:37:58Z
2023-06-24T13:38:47Z,42.805,6.029,13.3029,4.60143,2470.67,2023-6-24T15:41:02Z
2023-06-24T13:41:50Z,42.805,6.029,13.3039,4.60146,2470.646,2023-6-24T15:44:05Z
2023-06-24T13:44:53Z,42.805,6.029,13.3034,4.60138,2470.693,2023-6-24T15:47:08Z
2023-06-24T13:47:56Z,42.805,6.029,13.3031,4.60151,2470.707,2023-6-24T15:50:11Z
2023-06-24T13:50:59Z,42.805,6.029,13.3034,4.60117,2470.707,2023-6-24T15:53:14Z
2023-06-24T13:54:02Z,42.805,6.029,13.3046,4.60137,2470.707,2023-6-24T15:56:17Z
2023-06-24T13:57:05Z,42.805,6.029,13.3033,4.60137,2470.637,2023-6-24T15:59:20Z
2023-06-24T14:00:08Z,42.805,6.029,13.3036,4.60149,2470.684,2023-6-24T16:02:23Z
2023-06-24T14:03:11Z,42.805,6.029,13.3038,4.60159,2470.661,2023-6-24T16:05:26Z
2023-06-24T14:06:14Z,42.805,6.029,13.3036,4.60154,2470.684,2023-6-24T16:08:29Z
2023-06-24T14:09:17Z,42.805,6.029,13.3034,4.60139,2470.624,2023-6-24T16:11:32Z
2023-06-24T14:12:21Z,42.805,6.029,13.3044,4.60144,2470.67,2023-6-24T16:14:35Z
2023-06-24T14:15:24Z,42.805,6.029,13.3049,4.60155,2470.646,2023-6-24T16:17:39Z
2023-06-24T14:18:27Z,42.805,6.029,13.3042,4.60144,2470.684,2023-6-24T16:20:42Z
2023-06-24T14:21:30Z,42.805,6.029,13.3044,4.60135,2470.646,2023-6-24T16:23:45Z
2023-06-24T14:24:33Z,42.805,6.029,13.3044,4.60135,2470.67,2023-6-24T16:26:48Z
2023-06-24T14:27:36Z,42.805,6.029,13.3041,4.60167,2470.646,2023-6-24T16:29:51Z
2023-06-24T14:30:39Z,42.805,6.029,13.3035,4.60144,2470.646,2023-6-24T16:32:54Z
2023-06-24T14:33:43Z,42.805,6.029,13.3048,4.60150,2470.67,2023-6-24T16:35:57Z
2023-06-24T14:36:46Z,42.805,6.029,13.3036,4.60130,2470.661,2023-6-24T16:39:01Z
2023-06-24T14:39:49Z,42.805,6.029,13.3046,4.60125,2470.646,2023-6-24T16:42:04Z
2023-06-24T14:42:52Z,42.805,6.029,13.3044,4.60134,2470.67,2023-6-24T16:45:07Z
2023-06-24T14:45:55Z,42.805,6.029,13.3042,4.60165,2470.637,2023-6-24T16:48:10Z
2023-06-24T14:48:58Z,42.805,6.029,13.3047,4.60144,2470.646,2023-6-24T16:51:13Z
2023-06-24T14:52:01Z,42.805,6.029,13.3066,4.60157,2470.646,2023-6-24T16:54:16Z
2023-06-24T14:55:04Z,42.805,6.029,13.3063,4.60131,2470.646,2023-6-24T16:57:19Z
2023-06-24T14:58:07Z,42.805,6.029,13.3063,4.60166,2470.646,2023-6-24T17:00:22Z
2023-06-24T15:01:10Z,42.805,6.029,13.3058,4.60140,2470.684,2023-6-24T17:03:25Z
2023-06-24T15:04:13Z,42.805,6.029,13.3041,4.60144,2470.637,2023-6-24T17:06:28Z
2023-06-24T15:07:17Z,42.805,6.029,13.3048,4.60157,2470.646,2023-6-24T17:09:31Z
2023-06-24T15:10:20Z,42.805,6.029,13.3034,4.60166,2470.646,2023-6-24T17:12:34Z
2023-06-24T15:13:23Z,42.805,6.029,13.3059,4.60147,2470.646,2023-6-24T17:15:38Z